Flag for United Arab Emirates Weather past 2 weeks in Abu Dhabi, Abu Dhabi, United Arab Emirates

Now
66 °F

Passing clouds.


Feels Like: 66 °F
Forecast: 65 / 74 °F
Wind: 7 mph from Northwest

Location: Abu Dhabi Bateen Airport

Current Time: Dec 26, 2014 at 12:07:22 AM

Latest Report: Dec 25, 2014 at 11:00 PM


Visibility: N/A

Pressure: 30.18 "Hg

Humidity: 68%

Dew point: 55 °F

Location of Abu DhabiLocation

Historic Weather in Abu Dhabi — Graph

°F

Abu Dhabi temperature yesterday

Maximum temperature yesterday: 73 °F (at 11:00 AM)
Minimum temperature yesterday: 66 °F (at 11:00 PM)
Average temperature yesterday: 70 °F

Past Weeks' High & Low Weather Summary

 TemperatureHumidityPressure
High84 °F (Dec 14, 2:00 PM)94% (Dec 12, 6:00 AM)30.24 "Hg (Dec 12, 6:00 AM)
Low59 °F (Dec 22, 5:00 AM)20% (Dec 14, 2:00 PM)29.92 "Hg (Dec 22, 3:00 PM)
Average71 °F64%30.08 "Hg
* Reported Dec 10 11:00 PM — Dec 25 11:00 PM, Abu Dhabi, Weather by CustomWeather, © 2014

Note: Actual official high and low records may vary slightly from our data, if they occured in-between our weather recording intervals... More about our weather records

Advertising

Abu Dhabi weather history for previous 24 hours

 ConditionsComfort  
Time TempWeatherWind HumidityBarometerVisibility
11:00 PM
Dec 25
66 °FPassing clouds.7 mph68%30.18 "HgN/A
10:00 PM68 °FPassing clouds.3 mph64%30.18 "HgN/A
9:00 PM70 °FPassing clouds.5 mph64%30.18 "HgN/A
8:00 PM70 °FPassing clouds.7 mph60%30.18 "HgN/A
7:00 PM70 °FPassing clouds.9 mph60%30.18 "HgN/A
6:00 PM72 °FPassing clouds.9 mph57%30.18 "HgN/A
5:00 PM72 °FPartly sunny.9 mph61%30.15 "HgN/A
4:00 PM73 °FScattered clouds.13 mph53%30.15 "HgN/A
3:00 PM73 °FPartly sunny.10 mph57%30.15 "HgN/A
2:00 PM73 °FPartly sunny.12 mph57%30.15 "HgN/A
1:00 PM73 °FPartly sunny.13 mph53%30.18 "HgN/A
12:00 PM73 °FPartly sunny.15 mph53%30.21 "HgN/A
11:00 AM73 °FPartly sunny.14 mph57%30.24 "HgN/A
10:00 AM72 °FPartly sunny.14 mph57%30.24 "HgN/A
9:00 AM70 °FPartly sunny.14 mph60%30.21 "HgN/A
8:00 AM68 °FScattered clouds.9 mph64%30.21 "HgN/A
7:00 AM68 °FPassing clouds.10 mph64%30.18 "HgN/A
6:00 AM68 °FPassing clouds.9 mph64%30.18 "HgN/A
5:00 AM68 °FPassing clouds.12 mph64%30.15 "HgN/A
4:00 AM68 °FPassing clouds.12 mph60%30.15 "HgN/A
3:00 AM68 °FPassing clouds.15 mph56%30.15 "HgN/A
2:00 AM70 °FPassing clouds.14 mph60%30.18 "HgN/A
1:00 AM70 °FPassing clouds.16 mph60%30.18 "HgN/A
12:00 AM70 °FPassing clouds.16 mph60%30.18 "HgN/A
Weather by CustomWeather, © 2014

See weather overviewHow to use our weather pages